TimeCDT,TemperatureF,Dew PointF,Humidity,Sea Level PressureIn,VisibilityMPH,Wind Direction,Wind SpeedMPH,Gust SpeedMPH,PrecipitationIn,Events,Conditions,WindDirDegrees,DateUTC
12:53 AM,57.0,51.1,81,30.12,10.0,Calm,Calm,-,N/A,,Clear,0,2013-04-22 05:53:00
1:53 AM,55.9,51.1,84,30.10,10.0,Calm,Calm,-,N/A,,Clear,0,2013-04-22 06:53:00
2:53 AM,54.0,51.1,90,30.08,10.0,Calm,Calm,-,N/A,,Clear,0,2013-04-22 07:53:00
3:53 AM,55.9,52.0,87,30.07,10.0,Calm,Calm,-,N/A,,Clear,0,2013-04-22 08:53:00
4:53 AM,59.0,55.9,90,30.07,10.0,NNE,6.9,-,N/A,,Clear,20,2013-04-22 09:53:00
5:53 AM,60.1,55.0,83,30.08,10.0,NNE,8.1,-,N/A,,Partly Cloudy,30,2013-04-22 10:53:00
6:53 AM,60.1,55.9,86,30.11,10.0,NNE,6.9,-,N/A,,Partly Cloudy,30,2013-04-22 11:53:00
7:53 AM,63.0,55.0,75,30.13,10.0,NNE,9.2,-,N/A,,Mostly Cloudy,30,2013-04-22 12:53:00
8:53 AM,66.0,54.0,65,30.13,10.0,ENE,8.1,-,N/A,,Scattered Clouds,60,2013-04-22 13:53:00
9:53 AM,70.0,55.0,59,30.13,10.0,NE,6.9,-,N/A,,Scattered Clouds,40,2013-04-22 14:53:00
10:53 AM,71.1,57.0,61,30.14,10.0,NNE,6.9,-,N/A,,Mostly Cloudy,20,2013-04-22 15:53:00
11:53 AM,73.0,59.0,61,30.13,10.0,NNE,6.9,-,N/A,,Scattered Clouds,30,2013-04-22 16:53:00
12:53 PM,73.9,61.0,64,30.11,10.0,ENE,12.7,-,N/A,,Mostly Cloudy,60,2013-04-22 17:53:00
1:53 PM,75.0,63.0,66,30.09,10.0,NNE,12.7,-,N/A,,Overcast,30,2013-04-22 18:53:00
2:53 PM,73.0,64.0,73,30.07,10.0,NE,13.8,-,N/A,,Mostly Cloudy,50,2013-04-22 19:53:00
3:51 PM,75.2,62.6,65,30.03,10.0,East,10.4,16.1,N/A,,Mostly Cloudy,100,2013-04-22 20:51:00
3:53 PM,75.9,62.1,62,30.04,10.0,East,9.2,-,N/A,,Mostly Cloudy,100,2013-04-22 20:53:00
4:49 PM,75.2,62.6,65,30.02,10.0,East,9.2,17.3,N/A,,Scattered Clouds,100,2013-04-22 21:49:00
4:53 PM,75.0,62.1,64,30.03,10.0,ESE,11.5,17.3,N/A,,Scattered Clouds,110,2013-04-22 21:53:00
5:53 PM,73.9,63.0,68,30.03,10.0,East,11.5,19.6,N/A,,Mostly Cloudy,100,2013-04-22 22:53:00
6:53 PM,73.0,63.0,71,30.02,10.0,SE,12.7,17.3,N/A,,Scattered Clouds,130,2013-04-22 23:53:00
7:53 PM,70.0,63.0,78,30.04,10.0,ESE,6.9,-,N/A,,Partly Cloudy,120,2013-04-23 00:53:00
8:53 PM,69.1,64.0,84,30.05,10.0,SE,8.1,-,N/A,,Partly Cloudy,130,2013-04-23 01:53:00
9:53 PM,68.0,64.0,87,30.06,10.0,SE,4.6,-,N/A,,Partly Cloudy,130,2013-04-23 02:53:00
10:28 PM,68.0,64.4,88,30.05,10.0,SE,8.1,-,N/A,,Scattered Clouds,130,2013-04-23 03:28:00
10:53 PM,68.0,64.9,90,30.06,10.0,SE,6.9,-,N/A,,Scattered Clouds,140,2013-04-23 03:53:00
11:53 PM,68.0,64.0,87,30.05,10.0,SE,11.5,-,N/A,,Scattered Clouds,130,2013-04-23 04:53:00